DW2762 Weather Reports


Display with metric or nautical units.
time (UTC)temp
F
wind
direction
speed
MPH
gust
MPH
rain 1hr
in
rain 24hr
in
rain mn
in
humidity
%
barometer
mb
20260903020112 57 315 0.0 0.0 0.00 0.00 0.00 83 1020.3
20260903014614 57 315 0.0 0.0 0.00 0.00 0.00 83 1020.5
20260903013112 57 315 0.0 0.0 0.00 0.00 0.00 82 1020.5
20260903011612 58 316 0.0 0.0 0.00 0.00 0.00 81 1020.5
20260903010112 58 316 0.0 0.0 0.00 0.00 0.00 80 1020.6
20260903004612 58 316 0.0 0.0 0.00 0.00 0.00 79 1020.6
20260903001612 59 323 1.0 2.0 0.00 0.00 0.00 78 1020.5
20260903000112 59 302 5.0 8.0 0.00 0.00 0.00 78 1020.6
20260902234613 59 310 1.0 3.0 0.00 0.00 0.00 78 1020.5
20260902233111 60 319 0.0 1.0 0.00 0.00 0.00 76 1020.4
20260902231611 60 319 0.0 2.0 0.00 0.00 0.00 75 1020.4
20260902224611 62 306 2.0 3.0 0.00 0.00 0.00 73 1020.5
20260902223111 62 301 1.0 2.0 0.00 0.00 0.00 71 1020.5
20260902221612 63 323 0.0 0.0 0.00 0.00 0.00 70 1020.4
20260902220111 64 329 0.0 0.0 0.00 0.00 0.00 69 1020.5
20260902214610 65 329 1.0 3.0 0.00 0.00 0.00 68 1020.5
20260902213110 66 331 0.0 0.0 0.00 0.00 0.00 65 1020.3
20260902211610 67 331 0.0 1.0 0.00 0.00 0.00 63 1020.3
20260902210110 68 325 3.0 4.0 0.00 0.00 0.00 61 1020.1
20260902203110 69 351 3.0 6.0 0.00 0.00 0.00 58 1020.0
20260902201610 69 5 3.0 6.0 0.00 0.00 0.00 57 1020.0
20260902200110 69 351 3.0 6.0 0.00 0.00 0.00 56 1019.9
20260902194610 70 327 6.0 8.0 0.00 0.00 0.00 55 1019.9
20260902193110 70 325 4.0 8.0 0.00 0.00 0.00 53 1020.0
20260902190109 69 360 2.0 5.0 0.00 0.00 0.00 54 1020.0
20260902184609 70 344 2.0 4.0 0.00 0.00 0.00 52 1020.0
20260902183109 70 337 3.0 6.0 0.00 0.00 0.00 51 1019.9
20260902181610 71 330 3.0 7.0 0.00 0.00 0.00 51 1019.9
20260902174609 72 309 3.0 4.0 0.00 0.00 0.00 48 1019.5
20260902173109 72 313 3.0 7.0 0.00 0.00 0.00 48 1019.4
20260902170109 75 285 2.0 5.0 0.00 0.00 0.00 44 1019.1
20260902164609 76 336 2.0 4.0 0.00 0.00 0.00 44 1019.2
20260902163109 77 310 1.0 4.0 0.00 0.00 0.00 42 1019.2
20260902161609 51 317 0.0 0.0 0.00 0.00 0.00 90 1021.9
20260902160109 79 307 2.0 4.0 0.00 0.00 0.00 39 1019.2
20260902154609 78 277 6.0 11.0 0.00 0.00 0.00 39 1019.2
20260902153113 78 290 0.0 7.0 0.00 0.00 0.00 40 1019.4
20260902151613 78 236 1.0 7.0 0.00 0.00 0.00 41 1019.3
20260902150113 62 335 1.0 2.0 0.00 0.00 0.00 68 1021.3
20260902144613 78 269 4.0 7.0 0.00 0.00 0.00 41 1019.6
20260902143113 78 218 1.0 7.0 0.00 0.00 0.00 39 1019.6
20260902141613 79 286 4.0 8.0 0.00 0.00 0.00 40 1019.6
20260902140113 79 271 4.0 7.0 0.00 0.00 0.00 41 1019.7
20260902133112 79 243 2.0 7.0 0.00 0.00 0.00 41 1019.9
20260902131612 78 309 1.0 4.0 0.00 0.00 0.00 41 1020.0
20260902130113 79 202 0.0 7.0 0.00 0.00 0.00 42 1020.2
20260902121612 77 207 3.0 5.0 0.00 0.00 0.00 45 1020.6
20260902120112 78 196 4.0 8.0 0.00 0.00 0.00 44 1020.8
20260902114612 77 215 3.0 8.0 0.00 0.00 0.00 46 1021.0
20260902113111 77 144 4.0 8.0 0.00 0.00 0.00 47 1021.1
20260902111611 76 186 4.0 7.0 0.00 0.00 0.00 48 1021.1
20260902110111 76 259 5.0 11.0 0.00 0.00 0.00 48 1021.2
20260902104611 76 136 2.0 7.0 0.00 0.00 0.00 46 1021.3
20260902103111 76 178 4.0 7.0 0.00 0.00 0.00 48 1021.4
20260902101611 75 258 2.0 8.0 0.00 0.00 0.00 48 1021.6
20260902100111 76 159 4.0 8.0 0.00 0.00 0.00 47 1021.8
20260902094611 75 277 2.0 4.0 0.00 0.00 0.00 49 1021.7
20260902093111 75 137 6.0 10.0 0.00 0.00 0.00 51 1021.9
20260902091611 75 239 0.0 3.0 0.00 0.00 0.00 53 1021.9
20260902090110 74 170 1.0 4.0 0.00 0.00 0.00 53 1022.0
20260902084611 73 174 1.0 4.0 0.00 0.00 0.00 55 1022.1
20260902083110 72 165 0.0 0.0 0.00 0.00 0.00 58 1022.4
20260902081610 70 161 0.0 0.0 0.00 0.00 0.00 62 1022.4
20260902074610 66 180 2.0 4.0 0.00 0.00 0.00 68 1022.4
20260902071610 63 172 2.0 4.0 0.00 0.00 0.00 74 1022.3
20260902070110 62 148 0.0 0.0 0.00 0.00 0.00 78 1022.2
20260902064610 60 148 1.0 3.0 0.00 0.00 0.00 81 1022.1
20260902063110 59 151 1.0 3.0 0.00 0.00 0.00 83 1022.0
20260902060110 55 317 0.0 0.0 0.00 0.00 0.00 88 1021.9
20260902054609 53 317 0.0 0.0 0.00 0.00 0.00 89 1021.9
20260902053109 53 317 0.0 0.0 0.00 0.00 0.00 89 1021.8
20260902051609 52 317 0.0 0.0 0.00 0.00 0.00 90 1021.9
20260902050110 52 317 0.0 0.0 0.00 0.00 0.00 90 1021.8
20260902044609 51 317 0.0 0.0 0.00 0.00 0.00 90 1021.8
20260902043109 51 317 0.0 0.0 0.00 0.00 0.00 89 1021.7
20260902041609 51 317 0.0 0.0 0.00 0.00 0.00 89 1021.6
20260902034615 52 317 0.0 0.0 0.00 0.00 0.00 88 1021.6
20260902033114 52 317 0.0 0.0 0.00 0.00 0.00 88 1021.6
20260902031614 52 317 0.0 0.0 0.00 0.00 0.00 87 1021.6
20260902030113 53 317 0.0 0.0 0.00 0.00 0.00 87 1021.5
20260902024613 53 317 0.0 0.0 0.00 0.00 0.00 87 1021.6
20260902023113 53 317 0.0 0.0 0.00 0.00 0.00 87 1021.4